Change the Weather History Date:

Monday, January 16, 2012

  Actual Average (KBGD) Record (KBGD)
Temperature  
Mean Temperature 58 °F 39 °F  
Max Temperature 71 °F 51 °F 71 °F (1952)
Min Temperature 46 °F 26 °F 5 °F (1982)
Degree Days  
Heating Degree Days 6 26  
Month to date heating degree days 434  
Since 1 July heating degree days 1971  
Cooling Degree Days 0 0  
Month to date cooling degree days 0  
Year to date cooling degree days 0  
Growing Degree Days 8 (Base 50)    
Moisture  
Dew Point 31 °F    
Average Humidity 36    
Maximum Humidity 57    
Minimum Humidity 23    
Precipitation  
Precipitation 0.00 in 0.03 in 0.26 in (1987)
Month to date precipitation 0.26  
Year to date precipitation 0.26  
Snow  
Snow 0.00 in - 5.00 in (1987)
Month to date snowfall  
Since 1 July snowfall  
Snow Depth -    
Sea Level Pressure  
Sea Level Pressure 29.76 in    
Wind  
Wind Speed 19 mph (WSW)    
Max Wind Speed 37 mph    
Max Gust Speed 50 mph    
Visibility 10 miles    
Events      
T = Trace of Precipitation, MM = Missing Value Source: NWS Daily Summary

Daily Weather History Graph

Daily Weather History Graph

Search for Another Location

Airport or City:

Trip Planner

Search our weather history database for the weather conditions in past years. The results will help you decide how hot, cold, wet, or windy it might be!

Date:

Astronomy

Jan. 16, 2012 Rise Set
Actual Time 7:53 AM CST 5:54 PM CST
Civil Twilight 7:25 AM CST 6:22 PM CST
Nautical Twilight 6:54 AM CST 6:53 PM CST
Astronomical Twilight 6:23 AM CST 7:24 PM CST
Moon 1:08 AM CST (1/16) 12:06 PM CST (1/16)
Length of Visible Light 10h 56m
Length of Day
10h 00m
Last Quarter, 46% of the Moon is Illuminated
Jan 16
Last Quarter
Jan 23
New
Jan 30
First Quarter
Feb 7
Full
Feb 14
Last Quarter

Hourly Weather History & Observations

Time (CST) Temp. Windchill Dew Point Humidity Pressure Visibility Wind Dir Wind Speed Gust Speed Precip Events Conditions
12:15 AM 53.6 °F - 26.6 °F 35% 29.80 in 10.0 mi SW 12.7 mph - N/A   Clear
12:35 AM 51.8 °F - 26.6 °F 38% 29.80 in 10.0 mi SW 12.7 mph 17.3 mph N/A   Clear
12:55 AM 53.6 °F - 26.6 °F 35% 29.80 in 10.0 mi WSW 11.5 mph - N/A   Clear
1:15 AM 55.4 °F - 26.6 °F 33% 29.80 in 10.0 mi WSW 11.5 mph 20.7 mph N/A   Clear
1:35 AM 53.6 °F - 26.6 °F 35% 29.80 in 10.0 mi WSW 9.2 mph - N/A   Clear
1:55 AM 55.4 °F - 26.6 °F 33% 29.78 in 10.0 mi WSW 25.3 mph 29.9 mph N/A   Clear
2:15 AM 55.4 °F - 26.6 °F 33% 29.78 in 10.0 mi WSW 29.9 mph 40.3 mph N/A   Clear
2:35 AM 55.4 °F - 28.4 °F 36% 29.78 in 10.0 mi WSW 25.3 mph 32.2 mph N/A   Clear
2:55 AM 55.4 °F - 28.4 °F 36% 29.79 in 10.0 mi SW 20.7 mph 32.2 mph N/A   Clear
3:15 AM 55.4 °F - 28.4 °F 36% 29.79 in 10.0 mi SW 24.2 mph 32.2 mph N/A   Clear
3:35 AM 55.4 °F - 28.4 °F 36% 29.80 in 10.0 mi SW 21.9 mph 27.6 mph N/A   Clear
3:55 AM 53.6 °F - 28.4 °F 38% 29.79 in 10.0 mi SW 19.6 mph 25.3 mph N/A   Clear
4:15 AM 55.4 °F - 30.2 °F 38% 29.80 in 10.0 mi WSW 19.6 mph 27.6 mph N/A   Clear
4:35 AM 53.6 °F - 30.2 °F 41% 29.80 in 10.0 mi WSW 17.3 mph 23.0 mph N/A   Clear
4:55 AM 53.6 °F - 30.2 °F 41% 29.80 in 10.0 mi WSW 20.7 mph 26.5 mph N/A   Clear
5:15 AM 55.4 °F - 32.0 °F 41% 29.79 in 10.0 mi WSW 20.7 mph 29.9 mph N/A   Clear
5:35 AM 55.4 °F - 32.0 °F 41% 29.80 in 10.0 mi WSW 21.9 mph 32.2 mph N/A   Clear
5:55 AM 53.6 °F - 32.0 °F 44% 29.80 in 10.0 mi WSW 18.4 mph 26.5 mph N/A   Clear
6:15 AM 53.6 °F - 32.0 °F 44% 29.80 in 10.0 mi WSW 17.3 mph 25.3 mph N/A   Clear
6:35 AM 51.8 °F - 32.0 °F 47% 29.81 in 10.0 mi WSW 16.1 mph - N/A   Clear
6:55 AM 50.0 °F - 32.0 °F 50% 29.81 in 10.0 mi SW 13.8 mph - N/A   Clear
7:15 AM 50.0 °F - 32.0 °F 50% 29.80 in 10.0 mi SW 16.1 mph - N/A   Clear
7:35 AM 48.2 °F - 32.0 °F 54% 29.81 in 10.0 mi SSW 10.4 mph - N/A   Clear
7:55 AM 46.4 °F 39.8 °F 32.0 °F 57% 29.81 in 10.0 mi SW 16.1 mph - N/A   Clear
8:15 AM 46.4 °F 40.7 °F 32.0 °F 57% 29.81 in 10.0 mi SW 12.7 mph - N/A   Clear
8:35 AM 46.4 °F 41.9 °F 32.0 °F 57% 29.81 in 10.0 mi SW 9.2 mph - N/A   Clear
8:55 AM 46.4 °F 41.1 °F 32.0 °F 57% 29.81 in 10.0 mi SW 11.5 mph - N/A   Clear
9:15 AM 48.2 °F - 32.0 °F 54% 29.82 in 10.0 mi SW 11.5 mph - N/A   Clear
9:35 AM 50.0 °F - 32.0 °F 50% 29.83 in 10.0 mi SW 15.0 mph - N/A   Clear
9:55 AM 51.8 °F - 32.0 °F 47% 29.82 in 10.0 mi SW 12.7 mph - N/A   Clear
10:15 AM 55.4 °F - 32.0 °F 41% 29.83 in 10.0 mi WSW 11.5 mph 17.3 mph N/A   Clear
10:35 AM 59.0 °F - 32.0 °F 36% 29.82 in 10.0 mi WSW 15.0 mph 20.7 mph N/A   Clear
10:55 AM 60.8 °F - 32.0 °F 34% 29.82 in 10.0 mi WSW 21.9 mph 28.8 mph N/A   Clear
11:15 AM 62.6 °F - 33.8 °F 34% 29.81 in 10.0 mi WSW 21.9 mph 28.8 mph N/A   Clear
11:35 AM 66.2 °F - 33.8 °F 30% 29.79 in 10.0 mi WSW 25.3 mph 35.7 mph N/A   Clear
11:55 AM 68.0 °F - 33.8 °F 28% 29.78 in 10.0 mi WSW 25.3 mph 32.2 mph N/A   Clear
12:15 PM 68.0 °F - 35.6 °F 30% 29.77 in 10.0 mi WSW 28.8 mph 41.4 mph N/A   Clear
12:35 PM 69.8 °F - 33.8 °F 27% 29.74 in 10.0 mi West 29.9 mph 38.0 mph N/A   Clear
12:55 PM 69.8 °F - 33.8 °F 27% 29.73 in 10.0 mi SW 29.9 mph 39.1 mph N/A   Clear
1:15 PM 69.8 °F - 35.6 °F 28% 29.70 in 10.0 mi WSW 32.2 mph 39.1 mph N/A   Clear
1:35 PM 71.6 °F - 35.6 °F 27% 29.69 in 10.0 mi WSW 32.2 mph 46.0 mph N/A   Clear
1:55 PM 71.6 °F - 33.8 °F 25% 29.68 in 10.0 mi WSW 33.4 mph 41.4 mph N/A   Clear
2:15 PM 71.6 °F - 33.8 °F 25% 29.67 in 10.0 mi WSW 32.2 mph 41.4 mph N/A   Clear
2:35 PM 71.6 °F - 33.8 °F 25% 29.67 in 10.0 mi WSW 36.8 mph 48.3 mph N/A   Clear
2:55 PM 71.6 °F - 32.0 °F 23% 29.66 in 10.0 mi WSW 32.2 mph 49.5 mph N/A   Clear
3:15 PM 71.6 °F - 32.0 °F 23% 29.65 in 10.0 mi WSW 33.4 mph 49.5 mph N/A   Clear
3:35 PM 71.6 °F - 32.0 °F 23% 29.65 in 10.0 mi WSW 31.1 mph 43.7 mph N/A   Clear
3:55 PM 71.6 °F - 32.0 °F 23% 29.65 in 10.0 mi SW 26.5 mph 40.3 mph N/A   Clear
4:15 PM 69.8 °F - 32.0 °F 25% 29.66 in 10.0 mi WSW 29.9 mph 42.6 mph N/A   Clear
4:35 PM 69.8 °F - 32.0 °F 25% 29.66 in 10.0 mi WSW 33.4 mph 44.9 mph N/A   Clear
4:55 PM 68.0 °F - 32.0 °F 26% 29.67 in 10.0 mi WSW 23.0 mph 38.0 mph N/A   Clear
5:15 PM 68.0 °F - 32.0 °F 26% 29.66 in 10.0 mi WSW 27.6 mph 35.7 mph N/A   Clear
5:35 PM 66.2 °F - 32.0 °F 28% 29.67 in 10.0 mi WSW 19.6 mph 31.1 mph N/A   Clear
5:55 PM 64.4 °F - 32.0 °F 30% 29.68 in 10.0 mi WSW 19.6 mph 29.9 mph N/A   Clear
6:15 PM 62.6 °F - 32.0 °F 32% 29.68 in 10.0 mi WSW 18.4 mph 25.3 mph N/A   Clear
6:35 PM 62.6 °F - 32.0 °F 32% 29.69 in 10.0 mi WSW 13.8 mph - N/A   Clear
6:55 PM 60.8 °F - 32.0 °F 34% 29.69 in 10.0 mi WSW 12.7 mph - N/A   Clear
7:35 PM 57.2 °F - 32.0 °F 38% 29.69 in 10.0 mi SW 11.5 mph - N/A   Clear
7:55 PM 55.4 °F - 32.0 °F 41% 29.71 in 10.0 mi SW 10.4 mph - N/A   Clear
8:15 PM 53.6 °F - 32.0 °F 44% 29.72 in 10.0 mi WSW 10.4 mph - N/A   Clear
8:35 PM 55.4 °F - 32.0 °F 41% 29.73 in 10.0 mi SW 12.7 mph 17.3 mph N/A   Clear
8:55 PM 57.2 °F - 32.0 °F 38% 29.73 in 10.0 mi WSW 15.0 mph 19.6 mph N/A   Clear
9:15 PM 59.0 °F - 30.2 °F 34% 29.73 in 10.0 mi WSW 20.7 mph 25.3 mph N/A   Clear
9:35 PM 59.0 °F - 30.2 °F 34% 29.75 in 10.0 mi WSW 23.0 mph 28.8 mph N/A   Clear
9:55 PM 59.0 °F - 30.2 °F 34% 29.75 in 10.0 mi WSW 21.9 mph 29.9 mph N/A   Clear
10:15 PM 59.0 °F - 30.2 °F 34% 29.76 in 10.0 mi WSW 17.3 mph 25.3 mph N/A   Clear
10:35 PM 57.2 °F - 30.2 °F 36% 29.78 in 10.0 mi West 18.4 mph 27.6 mph N/A   Clear
10:55 PM 55.4 °F - 30.2 °F 38% 29.80 in 10.0 mi West 15.0 mph - N/A   Clear
11:15 PM 55.4 °F - 30.2 °F 38% 29.80 in 10.0 mi West 19.6 mph 28.8 mph N/A   Clear
11:35 PM 53.6 °F - 30.2 °F 41% 29.81 in 10.0 mi West 18.4 mph 26.5 mph N/A   Clear
11:55 PM 53.6 °F - 30.2 °F 41% 29.82 in 10.0 mi West 13.8 mph 21.9 mph N/A   Clear